Location: Beadle
(51.4667°N, 109.0000°W)
Time: 04:44:57
(UTC+00:00)

Altair - Pass Details

Date: 30 May 2022
Orbit: 1501 x 1682 km, 47.2° (Epoch: 30 June)

Event Time Altitude Azimuth Distance (km) Brightness Sun altitude
Rises 03:34:55 0° 282° (WNW) 4,911 11.4 -2.6°
Reaches altitude 10° 03:38:08 10° 278° (W) 3,935 10.7 -2.9°
Maximum altitude 03:47:51 54° 205° (SSW) 1,988 8.0 -4.1°
Drops below altitude 10° 03:57:31 10° 133° (SE) 3,918 8.9 -5.1°
Enters shadow 03:58:49 - 131° (SE) 4,309 9.1 -5.3°
Sets 04:00:44 0° 129° (SE) 4,890 - -5.5°
